Guymon, OK

7:28 PM CDT on May 26, 2018 (GMT -0500)
Guymon Municipal

Weather History for KGUY - December, 2011

Change the Weather History Date:

Saturday, December 17, 2011

  Actual Average Record
Temperature  
Mean Temperature 40 °F 34 °F  
Max Temperature 56 °F 47 °F 67 °F (2001)
Min Temperature 24 °F 21 °F -6 °F (2016)
Degree Days  
Heating Degree Days 25 31  
Month to date heating degree days 536 491  
Since 1 July heating degree days 1314 1382  
Cooling Degree Days 0 0  
Month to date cooling degree days 0 0  
Year to date cooling degree days 2163 1482  
Moisture  
Dew Point 28 °F    
Average Humidity 65    
Maximum Humidity 88    
Minimum Humidity 41    
Precipitation  
Precipitation 0.00 in 0.01 in 0.22 in (2010)
Month to date precipitation 0.39 0.39  
Year to date precipitation 7.71 19.05  
Snow  
Snow 0.00 in - - ()
Month to date snowfall 0.6  
Since 1 July snowfall 2.1  
Snow Depth 0.00 in    
Sea Level Pressure  
Sea Level Pressure 30.38 in    
Wind  
Wind Speed 5 mph (SSW)    
Max Wind Speed 14 mph    
Max Gust Speed 16 mph    
Visibility 10 miles    
Events      
T = Trace of Precipitation, MM = Missing Value Source: NWS Daily Summary

Daily Weather History Graph

Daily Weather History Graph

Search for Another Location

Airport or City:

Astronomy

Dec. 17, 2011 Rise Set
Actual Time 7:52 AM CST 5:31 PM CST
Civil Twilight 7:23 AM CST 6:00 PM CST
Nautical Twilight 6:51 AM CST 6:33 PM CST
Astronomical Twilight 6:19 AM CST 7:04 PM CST
Moon No Moon Rise 12:18 PM CST (12/17)
Length of Visible Light 10h 37m
Length of Day
9h 39m
Waning Gibbous, 53% of the Moon is Illuminated
Dec 17
Waning Gibbous
Dec 17
Last Quarter
Dec 24
New
Jan 1
First Quarter
Jan 9
Full

Hourly Weather History & Observations

Time (CST) Temp. Windchill Dew Point Humidity Pressure Visibility Wind Dir Wind Speed Gust Speed Precip Events Conditions
12:53 AM 28.0 °F 21.7 °F 24.1 °F 85% 30.43 in 10.0 mi West 5.8 mph - N/A   Clear
1:53 AM 26.1 °F 20.5 °F 21.9 °F 84% 30.42 in 10.0 mi West 4.6 mph - N/A   Clear
2:53 AM 28.0 °F 24.2 °F 23.0 °F 81% 30.43 in 10.0 mi WSW 3.5 mph - N/A   Clear
3:53 AM 25.0 °F 18.1 °F 21.0 °F 85% 30.42 in 10.0 mi SW 5.8 mph - N/A   Clear
4:53 AM 26.1 °F - 21.9 °F 84% 30.42 in 10.0 mi Calm Calm - N/A   Clear
5:53 AM 27.0 °F - 21.9 °F 81% 30.42 in 10.0 mi Calm Calm - N/A   Clear
6:53 AM 24.1 °F - 19.9 °F 84% 30.44 in 10.0 mi Calm Calm - N/A   Clear
7:53 AM 25.0 °F - 19.9 °F 81% 30.44 in 10.0 mi Calm Calm - N/A   Clear
8:53 AM 28.9 °F - 21.9 °F 75% 30.45 in 10.0 mi Calm Calm - N/A   Clear
9:53 AM 35.1 °F - 27.0 °F 72% 30.45 in 10.0 mi Calm Calm - N/A   Clear
10:53 AM 42.1 °F 40.2 °F 30.9 °F 65% 30.44 in 10.0 mi SW 3.5 mph - N/A   Clear
11:53 AM 46.9 °F - 30.9 °F 54% 30.42 in 10.0 mi SSW 9.2 mph - N/A   Clear
12:53 PM 51.1 °F - 30.9 °F 46% 30.37 in 10.0 mi SSW 9.2 mph - N/A   Clear
1:53 PM 52.0 °F - 28.9 °F 41% 30.35 in 10.0 mi Variable 3.5 mph - N/A   Clear
2:53 PM 55.0 °F - 32.0 °F 42% 30.31 in 10.0 mi South 6.9 mph - N/A   Clear
3:53 PM 55.9 °F - 33.1 °F 42% 30.31 in 10.0 mi South 6.9 mph - N/A   Clear
4:53 PM 54.0 °F - 36.0 °F 51% 30.31 in 10.0 mi SSW 9.2 mph - N/A   Clear
5:53 PM 46.9 °F - 34.0 °F 61% 30.33 in 10.0 mi South 6.9 mph - N/A   Clear
6:53 PM 39.0 °F 33.4 °F 32.0 °F 76% 30.35 in 10.0 mi SSW 8.1 mph - N/A   Clear
7:53 PM 39.0 °F 32.8 °F 32.0 °F 76% 30.34 in 10.0 mi SSW 9.2 mph - N/A   Clear
8:53 PM 37.0 °F 31.6 °F 30.9 °F 79% 30.34 in 10.0 mi SW 6.9 mph - N/A   Clear
9:53 PM 35.1 °F 29.3 °F 30.9 °F 85% 30.32 in 10.0 mi SSW 6.9 mph - N/A   Clear
10:53 PM 36.0 °F 29.0 °F 30.9 °F 82% 30.29 in 10.0 mi SSW 9.2 mph - N/A   Clear
11:53 PM 37.0 °F 29.3 °F 32.0 °F 82% 30.26 in 10.0 mi SSW 11.5 mph - N/A   Clear